Regional Weather Roundup
Issued by NWS

Home | Current Version | Previous Version | Graphics & Text | Print | Product List | Glossary Off
Versions: 1 2 3 4 5 6 7 8 9 10 11 12 13 14 15 16 17 18 19 20 21 22 23 24 25 26 27 28 29 30 31 32 33 34 35 36 37 38 39 40 41 42 43 44 45 46 47 48 49 50

000
ASUS43 KMKX 220620
RWRWI

WISCONSIN REGIONAL WEATHER ROUNDUP
NATIONAL WEATHER SERVICE MILWAUKEE/SULLIVAN WI
1200 AM CST SUN JAN 22 2017

NOTE: "FAIR" INDICATES FEW OR NO CLOUDS BELOW 12,000 FEET WITH NO
SIGNIFICANT WEATHER AND/OR OBSTRUCTIONS TO VISIBILITY.

WIZ001-002-006>008-014>016-023>028-220700-
NORTHWEST WISCONSIN

CITY           SKY/WX    TMP DP  RH WIND       PRES   REMARKS
SUPERIOR ARPT  CLOUDY    35  35 100 N5        29.56R FOG     WCI  31
6HR MIN TEMP:  35; 6HR MAX TEMP:  35;

ASHLAND        FOG       33  33 100 CALM      29.54S VSB 1/2
6HR MIN TEMP:  33; 6HR MAX TEMP:  34; 6HR PCP:  0.01;

HAYWARD        FOG       34  32  92 CALM      29.52S VSB 1/2
6HR MIN TEMP:  34; 6HR MAX TEMP:  36;

SIREN          CLOUDY    34  34  99 N3        29.54S FOG
6HR MIN TEMP:  34; 6HR MAX TEMP:  36;

CUMBERLAND     FOG       32  32 100 W5        29.53R VSB 1/2 WCI  27
RICE LAKE      CLOUDY    34  34 100 W3        29.54R FOG
6HR MIN TEMP:  33; 6HR MAX TEMP:  35;

CHETEK         CLOUDY    34  34 100 CALM      29.53R FOG
6HR MIN TEMP:  33; 6HR MAX TEMP:  35;

LADYSMITH      FOG       34  34  99 CALM      29.52S VSB 1/2
6HR MIN TEMP:  34; 6HR MAX TEMP:  37; 6HR PCP:  0.01;

EAU CLAIRE     FOG       34  32  92 W3        29.53R VSB 1/2
6HR MIN TEMP:  33; 6HR MAX TEMP:  36;

MENOMONIE        N/A    N/A N/A N/A MISG        N/A
NEW RICHMOND   FOG       34  34 100 NW3       29.54S VSB 1/2
6HR MIN TEMP:  33; 6HR MAX TEMP:  34;

OSCEOLA        FOG       34  34 100 SW3       29.58R VSB 1/2
6HR MIN TEMP:  33; 6HR MAX TEMP:  36;

$$

WIZ003>005-009-010-017-018-220700-
NORTH CENTRAL WISCONSIN

CITY           SKY/WX    TMP DP  RH WIND       PRES   REMARKS
MANITOWISH WTR FOG       33  33 100 CALM      29.49F VSB 1/2
6HR MIN TEMP:  33; 6HR MAX TEMP:  36; 6HR PCP:  0.01;

ARBOR VITAE    FOG       37  36  97 CALM      29.49F VSB 1/4
6HR MIN TEMP:  37; 6HR MAX TEMP:  37;

WOODRUFF       FOG       37  36  97 CALM      29.49F VSB 1/4
6HR MIN TEMP:  37; 6HR MAX TEMP:  37;

RHINELANDER    FOG       34  34 100 SW3       29.50R VSB 1/2
6HR MIN TEMP:  34; 6HR MAX TEMP:  36; 6HR PCP:  0.01;

EAGLE RIVER    FOG       33  33 100 CALM      29.49S VSB 1/4
6HR MIN TEMP:  33; 6HR MAX TEMP:  34;

LAND O LAKES   FOG       34  34 100 CALM      29.51S VSB 1/2
6HR MIN TEMP:  34; 6HR MAX TEMP:  36; 6HR PCP:  0.10;

PHILLIPS       FOG       33  33 100 CALM      29.50S VSB 1/2
6HR MIN TEMP:  33; 6HR MAX TEMP:  35;

TOMAHAWK       FOG       34  33  96 CALM      29.51R VSB 1
6HR MIN TEMP:  33; 6HR MAX TEMP:  35;

MEDFORD        FOG       33  33  99 S5        29.51R VSB 1/4 WCI  28
6HR MIN TEMP:  33; 6HR MAX TEMP:  35;

MERRILL        FOG       34  34 100 CALM        N/A  VSB 1/2
6HR MIN TEMP:  34; 6HR MAX TEMP:  36;

$$

WIZ029-030-035-036-043>047-220700-
CENTRAL WISCONSIN

CITY           SKY/WX    TMP DP  RH WIND       PRES   REMARKS
WAUSAU         FOG       35  35 100 CALM      29.51S VSB 1/4
6HR MIN TEMP:  34; 6HR MAX TEMP:  35;

MOSINEE        FOG       34  34 100 S3        29.53S VSB 1/4
MARSHFIELD     FOG       36  36 100 SW5       29.51S VSB 1/4 WCI  32
6HR MIN TEMP:  34; 6HR MAX TEMP:  36;

STEVENS POINT  FOG       35  35 100 S5        29.54R VSB 1/4 WCI  31
6HR MIN TEMP:  33; 6HR MAX TEMP:  36;

WAUPACA        FOG       36  35  96 CALM      29.55S VSB 1/2
6HR MIN TEMP:  36; 6HR MAX TEMP:  38;

WAUTOMA        FOG       39  39 100 S5        29.56S VSB 1/4
6HR MIN TEMP:  34; 6HR MAX TEMP:  39;

WISC RAPIDS    FOG       38  38 100 SW7       29.54S VSB 1/4 WCI  33
6HR MIN TEMP:  36; 6HR MAX TEMP:  39;

CAMP DOUGLAS   CLOUDY    37  37 100 SW5       29.53F WCI  34
6HR MIN TEMP:  36; 6HR MAX TEMP:  39;

$$

WIZ011>013-019>022-031-037>040-048>050-220700-
NORTHEAST WISCONSIN

CITY           SKY/WX    TMP DP  RH WIND       PRES   REMARKS
ANTIGO         FOG       33  33 100 SE3       29.52R VSB 1/4
6HR MIN TEMP:  32; 6HR MAX TEMP:  33;

SHAWANO        FOG       35  34  96 CALM      29.54S VSB 1/4
6HR MIN TEMP:  35; 6HR MAX TEMP:  37;

OCONTO         CLOUDY    34  34 100 CALM      29.55S
6HR MIN TEMP:  33; 6HR MAX TEMP:  35;

STURGEON BAY   CLOUDY    38  37  97 W3        29.56R FOG
6HR MIN TEMP:  38; 6HR MAX TEMP:  40;

GREEN BAY      FOG       38  38 100 S3        29.55R VSB 1/4
6HR MIN TEMP:  36; 6HR MAX TEMP:  39;

MANITOWOC      FOG       39  38  96 MISG      29.57S VSB 1/2
6HR MIN TEMP:  36; 6HR MAX TEMP:  43;

APPLETON       FOG       36  36 100 S6        29.54S VSB 1/4 WCI  31
CLINTONVILLE   FOG       34  34 100 CALM      29.54S VSB 1/2
OSHKOSH        CLOUDY    38  37  97 S7        29.55S FOG     WCI  33
6HR MIN TEMP:  36; 6HR MAX TEMP:  41;

$$

WIZ032>034-041-042-053>061-220700-
SOUTHWEST WISCONSIN

CITY           SKY/WX    TMP DP  RH WIND       PRES   REMARKS
LA CROSSE      CLOUDY    40  37  89 S7        29.55R
6HR MIN TEMP:  40; 6HR MAX TEMP:  43;

SPARTA         CLOUDY    37  37 100 CALM      29.55S FOG
6HR MIN TEMP:  36; 6HR MAX TEMP:  39;

VIROQUA        CLOUDY    36  36 100 SW5       29.54S VSB 1/4 WCI  32
6HR MIN TEMP:  36; 6HR MAX TEMP:  38;

BOSCOBEL       FOG       37  37 100 CALM      29.57S VSB 1/2
6HR MIN TEMP:  37; 6HR MAX TEMP:  44;

PRAIRIE DU CHI FOG       37  36  96 CALM      29.56F VSB 1/4
6HR MIN TEMP:  35; 6HR MAX TEMP:  41;

PLATTEVILLE    CLOUDY    37  37 100 S7        29.57S VSB 1/4 WCI  32
6HR MIN TEMP:  37; 6HR MAX TEMP:  41;

$$

WIZ056-057-062-063-064-067-068-220700-
SOUTH CENTRAL WISCONSIN

CITY           SKY/WX    TMP DP  RH WIND       PRES   REMARKS
REEDSBURG      CLOUDY    38  38 100 CALM      29.55S FOG
6HR MIN TEMP:  38; 6HR MAX TEMP:  40;

BARABOO/DELLS  FOG       38  38  99 S3        29.55S VSB 1/2
6HR MIN TEMP:  38; 6HR MAX TEMP:  40;

LONE ROCK      FOG       38  37  97 CALM      29.57S VSB 1/2
6HR MIN TEMP:  37; 6HR MAX TEMP:  41;

MINERAL POINT  FOG       41  41 100 S3        29.55F VSB<1/4
MADISON        CLOUDY    41  40  96 CALM      29.57F FOG
6HR MIN TEMP:  40; 6HR MAX TEMP:  43; 6HR PCP: TRACE;

MIDDLETON      CLOUDY    42  42 100 SW3       29.56F
6HR MIN TEMP:  41; 6HR MAX TEMP:  43;

WATERTOWN      CLOUDY    39  39 100 CALM      29.56F FOG
6HR MIN TEMP:  39; 6HR MAX TEMP:  43;

MONROE         FOG       37  37 100 S6        29.57S VSB 1/4 WCI  33
JANESVILLE     CLOUDY    41  41 100 S3        29.57F FOG
$$

WIZ051-052-058>065-066-070>072-220700-
SOUTHEAST WISCONSIN

CITY           SKY/WX    TMP DP  RH WIND       PRES   REMARKS
MILWAUKEE      CLOUDY    44  40  85 SW5       29.58F
6HR MIN TEMP:  43; 6HR MAX TEMP:  49;

WAUKESHA       CLOUDY    36  36 100 CALM      29.58F FOG
MILWAUKEE/TIMM MOCLDY    41  36  81 SW5       29.58S
RACINE         CLOUDY    42  39  89 W6        29.60S
6HR MIN TEMP:  39; 6HR MAX TEMP:  49;

KENOSHA        CLOUDY    40  39  97 W5        29.58F FOG
6HR MIN TEMP:  40; 6HR MAX TEMP:  49;

FOND DU LAC    CLOUDY    41  38  89 S7        29.56S
6HR MIN TEMP:  38; 6HR MAX TEMP:  41;

SHEBOYGAN      CLOUDY    37  37 100 S5        29.56F FOG     WCI  33
6HR MIN TEMP:  36; 6HR MAX TEMP:  42;

WEST BEND      CLOUDY    41  41 100 SW6       29.57S
JUNEAU         CLOUDY    38  38  97 S6        29.57S FOG     WCI  34
6HR MIN TEMP:  38; 6HR MAX TEMP:  41;

$$

LSZ147-162-220700-
LAKE SUPERIOR

STATION/POSITION TIME  TEMP    WIND        PRES    WAVE
                       AIR SEA DIR/SP/G            HT/PER
                 (UTC) (F)     (DEG/KT/KT) (MB)    (FT/S)
DEVILS ISLAND    0600   36      40/ 11/ 12 1001.0R
PORT WING        0540   34      60/  4/  6 1000.7S
SAXON HARBOR     0540   33        CALM     1000.0S
$$

LMZ867-665-643>646-220700-
LAKE MICHIGAN

STATION/POSITION TIME  TEMP    WIND        PRES    WAVE
                       AIR SEA DIR/SP/G            HT/PER
                 (UTC) (F)     (DEG/KT/KT) (MB)    (FT/S)
NORTHPORT PIER   0540   38      CALM  /  3 1000.3S
SISTER BAY       0550   38     240/ 10/ 11   N/A
KEWAUNEE LAK



USA.gov is the U.S. government's official web portal to all federal, state and local government web resources and services.